Погода в Сан-Хосе-дель-Гуавьяре

Колумбия     2°33′59″N   72°38′21″W
В апреле 2022 года жителям России запретили посещать сайт meteo.paraplan.net по решению Генеральной прокуратуры. Аудитория сайта уменьшилась в 10 раз. Владельцы сайта не видят смысла в поддержке погодного сервера в таких условиях. Сайт будет закрыт в октябре.
темп.,
°C
ветер,
м/с
пор.,
м/с
влажн.,
%
обл.,
%
осадки,
мм/ч
давл.,
гПа
погр.,
м
4 октября, вт
вт401:00+22юз0096100 0.1 101111
04:00+21ссз009813 0.0 101112
07:00+24сз018730 0.0 1012118
10:00+31с11555 0.0 10131169
13:00+33вюв114592 0.0 10082214
16:00+29с127073 0.0 1007185
19:00+25с118653 0.1 100811
22:00+24ссз118660 0.0 100912
5 октября, ср
ср501:00+22сз129696 0.8 100848
04:00+21в009773 0.1 100811
07:00+23вюв0192100 0.1 101087
10:00+31всв22555 0.0 10111061
13:00+34всв114338 0.0 10072414
16:00+30св246575 0.0 1005299
19:00+26с117830 0.0 100713
22:00+24с11856 0.0 100911
6 октября, чт
чт601:00+23з009012 0.3 100811
04:00+22сз1194100 0.1 100712
07:00+24ссв128590 0.1 1010139
10:00+31ссв235893 0.0 10111029
13:00+34св2247100 0.0 10072406
16:00+30св2568100 0.1 1005520
19:00+24ссв1295100 2.6 100739
22:00+23с189795 0.5 1009226
7 октября, пт
пт701:00+22ссв0199100 0.5 100915
04:00+22ссв129996 0.0 100958
07:00+23с1597100 0.0 1011253
10:00+29ссв2463100 0.0 10121058
13:00+32ссв2252100 0.0 10081779
16:00+28с1375100 0.1 100690
19:00+25с1384100 0.1 100676
22:00+23с2492100 0.3 100887
8 октября, сб
сб801:00+22с1198100 0.8 100839
04:00+22ссв0199100 1.6 100817
07:00+23с1296100 1.6 1010126
10:00+31ссв2361100 0.0 10101178
13:00+28ссв1387100 4.3 1008268
16:00+27с129058 3.3 100587
19:00+24з1195100 5.0 100711
22:00+23зюз1197100 0.3 100912